Location: Audinghen
(50.8518°N, 1.6129°E)
Time: 00:06:02
(UTC+00:00)

CZ-2C R/B - Pass Details

Date: 07 August 2020
Orbit: 501 x 568 km, 97.7° (Epoch: 23 September)

Event Time Altitude Azimuth Distance (km) Brightness Sun altitude
Rises 03:19:04 0° 15° (NNE) 2,730 7.4 -9.9°
Reaches altitude 10° 03:21:15 10° 19° (NNE) 1,821 6.5 -9.7°
Maximum altitude 03:25:09 65° 102° (ESE) 591 3.1 -9.2°
Drops below altitude 10° 03:28:57 10° 185° (S) 1,765 5.0 -8.7°
Enters shadow 03:30:13 - 187° (S) 2,300 5.6 -8.6°
